User: anonymous   Login
Location: Bambrugge
(50.9212°N, 3.9299°E)
Time: 07:29:08
(UTC+00:00)
Language:

Cosmos 2322 Rocket - Orbit

View from above orbital plane
View from above orbital plane
View from above satellite
View from above satellite

Ground track
Ground track

The orbit data is extracted from the following two-line orbital elements,

1 23705U 95058B   24202.81860647  .00000348  00000-0  20293-3 0  9998
2 23705  71.0227 353.2580 0014248 304.2577  55.7196 14.15351395483398
Epoch (UTC): 20 July 2024 19:38:47
Eccentricity: 0.0014248
inclination: 71.0227°
perigee height: 831 km
apogee height: 851 km
right ascension of ascending node: 353.2580°
argument of perigee: 304.2577°
revolutions per day: 14.15351395
mean anomaly at epoch: 55.7196°
orbit number at epoch: 48339

The dashed part of the orbit path shows where the satellite is in the earth's shadow,  

DLR